Regional Weather Roundup
Issued by NWS

Home | Current Version | Previous Version | Text Only | Print | Product List | Glossary On
Versions: 1 2 3 4 5 6 7 8 9 10 11 12 13 14 15 16 17 18 19 20 21 22 23 24 25 26 27 28 29 30 31 32 33 34 35 36 37 38 39 40 41 42 43 44 45 46 47 48 49 50
000
ASUS43 KFSD 220002
RWRSD

WEATHER ROUNDUP FOR SOUTH DAKOTA
NATIONAL WEATHER SERVICE SIOUX FALLS SD
700 PM CDT THU AUG 21 2014

NOTE: "FAIR" INDICATES FEW OR NO CLOUDS BELOW 12,000 FEET WITH NO
SIGNIFICANT WEATHER AND/OR OBSTRUCTIONS TO VISIBILITY.


SDZ001>005-009-010-012>017-220100-
NORTHWEST AND NORTH CENTRAL SOUTH DAKOTA

CITY           SKY/WX    TMP DP  RH WIND       PRES   REMARKS
BUFFALO          N/A     76  56  49 NE20      29.90S
FAITH            N/A     81  57  43 E8        29.94R
MOBRIDGE       SUNNY     80  64  58 N9        29.88R
$$

SDZ012>016-024>037-041>051-057-063-072>074-220100-
SOUTHWEST AND SOUTH CENTRAL SOUTH DAKOTA

CITY           SKY/WX    TMP DP  RH WIND       PRES   REMARKS
RAPID CTY ARPT PTSUNNY   80  60  50 N7        29.95S
PIERRE         SUNNY     86  60  41 N5        29.87S
CUSTER         PTSUNNY   69  54  58 E9        30.09R
ELLSWORTH AFB  PTSUNNY   80  56  42 N14G21    29.96R
PHILIP         SUNNY     89  49  25 E6        29.90S
PINE RIDGE     MOSUNNY   84  56  38 E9        29.95S
WINNER         FAIR      87  57  35 N5        29.90S
$$

SDZ004>011-016>023-039-040-220100-
NORTHEAST SOUTH DAKOTA

CITY           SKY/WX    TMP DP  RH WIND       PRES   REMARKS
ABERDEEN       SUNNY     80  66  62 N10       29.87R
WATERTOWN      SUNNY     80  68  66 NW9       29.87R
SISSETON         N/A     79  72  79 N3        29.83R
$$

SDZ017-020-022-023-036>040-048>070-220100-
SOUTHEAST SOUTH DAKOTA

CITY           SKY/WX    TMP DP  RH WIND       PRES   REMARKS
SIOUX FALLS    PTSUNNY   84  69  60 N9        29.84R
HURON          SUNNY     82  63  52 N10       29.85R
CHAMBERLAIN    SUNNY     84  62  46 N3        29.88R
MITCHELL       SUNNY     84  70  62 N6        29.85R
YANKTON        SUNNY     86  72  62 NW7       29.83R
$$

ABBREVIATIONS USED IN REMARKS
   TC - TEMPERATURE IN CELSIUS
  WCI - WIND CHILL INDEX
   HX - HEAT INDEX
  VSB - VISIBILITY




USA.gov is the U.S. government's official web portal to all federal, state and local government web resources and services.